Change the Weather History Date:

Saturday, November 23, 2013

  Actual Average (KBGD) Record (KBGD)
Temperature  
Mean Temperature 27 °F 45 °F  
Max Temperature 31 °F 58 °F 79 °F (1965)
Min Temperature 23 °F 33 °F 8 °F (1957)
Degree Days  
Heating Degree Days 38 20  
Month to date heating degree days 347  
Since 1 July heating degree days 568  
Cooling Degree Days 0 0  
Month to date cooling degree days 0  
Year to date cooling degree days 1835  
Moisture  
Dew Point 20 °F    
Average Humidity 77    
Maximum Humidity 95    
Minimum Humidity 45    
Precipitation  
Precipitation 0.03 in 0.03 in 1.22 in (2004)
Month to date precipitation 0.71  
Year to date precipitation 20.82  
Snow  
Snow 0.00 in - 5.50 in (2004)
Month to date snowfall  
Since 1 July snowfall  
Since 1 September snowfall  
Snow Depth -    
Sea Level Pressure  
Sea Level Pressure 30.58 in    
Wind  
Wind Speed 9 mph (NNE)    
Max Wind Speed 15 mph    
Max Gust Speed 18 mph    
Visibility 9 miles    
Events Snow    
T = Trace of Precipitation, MM = Missing Value Source: NWS Daily Summary

Daily Weather History Graph

Daily Weather History Graph

Search for Another Location

Airport or City:

Trip Planner

Search our weather history database for the weather conditions in past years. The results will help you decide how hot, cold, wet, or windy it might be!

Date:

Astronomy

Nov. 23, 2013 Rise Set
Actual Time 7:32 AM CST 5:36 PM CST
Civil Twilight 7:04 AM CST 6:04 PM CST
Nautical Twilight 6:33 AM CST 6:35 PM CST
Astronomical Twilight 6:02 AM CST 7:06 PM CST
Moon 11:02 PM CST (11/23) 11:54 AM CST (11/23)
Length of Visible Light 10h 59m
Length of Day
10h 03m
Waning Gibbous, 69% of the Moon is Illuminated
Nov 23
Waning Gibbous
Nov 25
Last Quarter
Dec 2
New
Dec 9
First Quarter
Dec 17
Full

Hourly Weather History & Observations

Time (CST) Temp. Windchill Dew Point Humidity Pressure Visibility Wind Dir Wind Speed Gust Speed Precip Events Conditions
12:15 AM 23.9 °F 15.0 °F 22.1 °F 93% 30.56 in 7.0 mi North 8.1 mph - N/A   Overcast
12:35 AM 23.9 °F 14.2 °F 22.1 °F 93% 30.56 in 7.0 mi NNE 9.2 mph - N/A   Overcast
12:55 AM 23.9 °F 15.0 °F 22.5 °F 94% 30.56 in 7.0 mi North 8.1 mph - N/A   Overcast
1:15 AM 23.9 °F 15.8 °F 22.3 °F 94% 30.56 in 5.0 mi North 6.9 mph - N/A   Overcast
1:35 AM 23.9 °F 14.2 °F 22.1 °F 93% 30.56 in 10.0 mi North 9.2 mph - N/A   Overcast
1:55 AM 23.9 °F 13.5 °F 22.1 °F 93% 30.55 in 10.0 mi North 10.4 mph - N/A   Overcast
2:15 AM 23.9 °F 13.5 °F 22.1 °F 93% 30.55 in 10.0 mi North 10.4 mph - N/A   Overcast
2:35 AM 23.9 °F 13.5 °F 22.3 °F 94% 30.56 in 10.0 mi North 10.4 mph - N/A   Overcast
2:55 AM 23.9 °F 12.9 °F 22.6 °F 95% 30.56 in 10.0 mi North 11.5 mph - N/A   Overcast
3:15 AM 23.7 °F 12.6 °F 21.6 °F 91% 30.56 in 10.0 mi North 11.5 mph 18.4 mph N/A   Overcast
3:35 AM 23.9 °F 12.9 °F 22.1 °F 93% 30.56 in 10.0 mi North 11.5 mph 17.3 mph N/A   Overcast
3:55 AM 23.9 °F 12.3 °F 22.1 °F 93% 30.56 in 10.0 mi North 12.7 mph 17.3 mph N/A   Overcast
4:15 AM 23.9 °F 13.5 °F 22.1 °F 93% 30.56 in 10.0 mi North 10.4 mph - N/A   Overcast
4:35 AM 23.9 °F 14.2 °F 21.9 °F 92% 30.56 in 10.0 mi North 9.2 mph 17.3 mph N/A   Overcast
4:55 AM 23.9 °F 12.9 °F 22.1 °F 93% 30.56 in 10.0 mi NNE 11.5 mph - N/A   Overcast
5:15 AM 23.7 °F 13.3 °F 21.2 °F 90% 30.57 in 10.0 mi North 10.4 mph 16.1 mph N/A   Overcast
5:35 AM 23.5 °F 12.4 °F 21.2 °F 91% 30.58 in 10.0 mi North 11.5 mph - N/A   Overcast
5:55 AM 23.7 °F 14.0 °F 21.4 °F 91% 30.57 in 10.0 mi North 9.2 mph - N/A   Overcast
6:15 AM 23.9 °F 15.0 °F 21.7 °F 91% 30.57 in 10.0 mi North 8.1 mph - N/A   Mostly Cloudy
6:35 AM 24.3 °F 14.6 °F 21.7 °F 90% 30.56 in 10.0 mi NNE 9.2 mph - N/A   Mostly Cloudy
6:55 AM 24.4 °F 14.9 °F 21.9 °F 90% 30.56 in 10.0 mi North 9.2 mph - N/A   Overcast
7:15 AM 24.8 °F 15.3 °F 22.1 °F 89% 30.58 in 10.0 mi North 9.2 mph - N/A   Overcast
7:35 AM 25.2 °F 18.3 °F 22.1 °F 88% 30.59 in 10.0 mi North 5.8 mph - N/A   Overcast
7:55 AM 25.5 °F 16.2 °F 22.1 °F 87% 30.60 in 10.0 mi North 9.2 mph - N/A   Overcast
8:15 AM 25.7 °F 17.1 °F 22.5 °F 88% 30.60 in 10.0 mi NNE 8.1 mph - N/A   Overcast
8:35 AM 26.1 °F 16.8 °F 22.3 °F 86% 30.61 in 10.0 mi North 9.2 mph - N/A   Overcast
8:55 AM 26.6 °F 16.2 °F 22.6 °F 85% 30.61 in 10.0 mi North 11.5 mph - N/A   Overcast
9:15 AM 27.1 °F 17.5 °F 22.6 °F 83% 30.62 in 10.0 mi North 10.4 mph - N/A   Overcast
9:35 AM 27.5 °F 16.8 °F 22.1 °F 80% 30.62 in 10.0 mi NNE 12.7 mph - N/A   Overcast
9:55 AM 27.9 °F 16.3 °F 21.0 °F 75% 30.62 in 10.0 mi NNE 15.0 mph - N/A   Overcast
10:15 AM 28.2 °F 17.7 °F 20.1 °F 72% 30.62 in 10.0 mi NNE 12.7 mph - N/A   Overcast
10:35 AM 28.4 °F 18.0 °F 18.0 °F 65% 30.62 in 10.0 mi NNE 12.7 mph - N/A   Overcast
10:55 AM 28.4 °F 17.0 °F 16.2 °F 60% 30.62 in 10.0 mi NNE 15.0 mph 18.4 mph N/A   Overcast
11:15 AM 28.6 °F 17.7 °F 16.5 °F 61% 30.62 in 10.0 mi NNE 13.8 mph 18.4 mph N/A   Overcast
11:35 AM 28.8 °F 19.5 °F 16.0 °F 59% 30.62 in 10.0 mi NE 10.4 mph - N/A   Overcast
11:55 AM 28.9 °F 18.6 °F 14.5 °F 55% 30.62 in 10.0 mi NNE 12.7 mph 17.3 mph N/A   Overcast
12:15 PM 29.3 °F 19.6 °F 15.8 °F 57% 30.60 in 10.0 mi NE 11.5 mph - N/A   Overcast
12:35 PM 29.7 °F 19.1 °F 15.4 °F 55% 30.60 in 10.0 mi NNE 13.8 mph - N/A   Overcast
12:55 PM 30.2 °F 21.3 °F 16.7 °F 57% 30.60 in 10.0 mi NNE 10.4 mph - N/A   Mostly Cloudy
1:15 PM 30.7 °F 22.6 °F 15.6 °F 54% 30.60 in 10.0 mi NNE 9.2 mph - N/A   Scattered Clouds
1:35 PM 30.9 °F 22.2 °F 15.1 °F 52% 30.59 in 10.0 mi NNE 10.4 mph - N/A   Clear
1:55 PM 31.5 °F 23.5 °F 14.7 °F 50% 30.59 in 10.0 mi NNE 9.2 mph - N/A   Scattered Clouds
2:15 PM 31.6 °F 23.1 °F 14.2 °F 49% 30.59 in 10.0 mi NE 10.4 mph - N/A   Scattered Clouds
2:35 PM 31.5 °F 23.5 °F 12.2 °F 45% 30.58 in 10.0 mi NE 9.2 mph - N/A   Mostly Cloudy
2:55 PM 31.1 °F 24.5 °F 14.5 °F 50% 30.58 in 10.0 mi NNE 6.9 mph - N/A   Overcast
3:15 PM 31.1 °F 24.5 °F 15.3 °F 52% 30.58 in 10.0 mi NNE 6.9 mph - N/A   Mostly Cloudy
3:35 PM 30.9 °F 24.3 °F 15.6 °F 53% 30.59 in 10.0 mi NNE 6.9 mph - N/A   Clear
3:55 PM 31.1 °F 23.7 °F 16.2 °F 54% 30.59 in 10.0 mi NNE 8.1 mph - N/A   Clear
4:15 PM 30.9 °F 24.3 °F 16.3 °F 55% 30.59 in 10.0 mi NE 6.9 mph - N/A   Clear
4:35 PM 30.6 °F 22.4 °F 16.0 °F 55% 30.59 in 10.0 mi NE 9.2 mph - N/A   Clear
4:55 PM 30.2 °F 22.6 °F 17.6 °F 60% 30.59 in 10.0 mi NE 8.1 mph - N/A   Clear
5:15 PM 29.8 °F 20.9 °F 16.5 °F 58% 30.59 in 10.0 mi ENE 10.4 mph - N/A   Scattered Clouds
5:35 PM 28.0 °F 19.3 °F 14.7 °F 57% 30.58 in 5.0 mi East 9.2 mph 16.1 mph N/A Snow Light Snow
5:55 PM 27.5 °F 19.3 °F 17.4 °F 66% 30.59 in 10.0 mi East 8.1 mph - N/A   Mostly Cloudy
6:15 PM 26.6 °F 18.2 °F 19.9 °F 76% 30.57 in 2.5 mi ENE 8.1 mph - N/A Snow Light Snow
6:35 PM 26.2 °F 19.6 °F 21.0 °F 81% 30.57 in 10.0 mi NE 5.8 mph - N/A   Overcast
6:55 PM 26.6 °F 20.0 °F 20.5 °F 78% 30.56 in 10.0 mi NE 5.8 mph - N/A   Overcast
7:15 PM 26.4 °F 18.9 °F 20.8 °F 79% 30.56 in 10.0 mi ESE 6.9 mph - N/A   Overcast
7:35 PM 25.7 °F 19.0 °F 22.1 °F 86% 30.56 in 10.0 mi East 5.8 mph - N/A   Overcast
7:55 PM 26.4 °F 18.9 °F 22.1 °F 84% 30.56 in 10.0 mi East 6.9 mph - N/A   Scattered Clouds
8:15 PM 26.6 °F 18.2 °F 21.6 °F 81% 30.56 in 10.0 mi ENE 8.1 mph - N/A   Scattered Clouds
8:35 PM 27.1 °F 18.9 °F 20.5 °F 76% 30.56 in 10.0 mi NE 8.1 mph - N/A   Mostly Cloudy
8:55 PM 27.0 °F 18.0 °F 19.9 °F 75% 30.56 in 10.0 mi NNE 9.2 mph - N/A   Scattered Clouds
9:15 PM 26.6 °F 17.5 °F 20.3 °F 77% 30.57 in 10.0 mi NNE 9.2 mph - N/A   Mostly Cloudy
9:35 PM 26.1 °F 17.6 °F 21.4 °F 82% 30.57 in 10.0 mi NNE 8.1 mph - N/A   Overcast
9:55 PM 25.5 °F 17.8 °F 22.1 °F 87% 30.57 in 3.0 mi NE 6.9 mph - N/A Snow Light Snow
10:15 PM 24.8 °F 17.9 °F 22.6 °F 91% 30.56 in 2.0 mi NE 5.8 mph - N/A Snow Light Snow
10:35 PM 24.4 °F 18.6 °F 22.5 °F 92% 30.59 in 1.8 mi NNE 4.6 mph - 0.01 in Snow Light Snow
10:55 PM 24.4 °F - 22.8 °F 94% 30.58 in 2.5 mi Calm Calm - 0.01 in Snow Light Snow
11:15 PM 24.4 °F - 22.8 °F 94% 30.57 in 1.8 mi Calm Calm - N/A Snow Light Snow
11:35 PM 24.4 °F - 23.0 °F 94% 30.57 in 1.8 mi Calm Calm - 0.01 in Snow Light Snow
11:55 PM 24.8 °F - 23.0 °F 93% 30.59 in 2.5 mi Calm Calm - 0.02 in Snow Light Snow